Peru, IL

1:27 AM CDT on September 20, 2019 (GMT -0500)
Illinois Valley Regional-Duncan

Weather History for KVYS - August, 2019

Change the Weather History Date:

Wednesday, August 21, 2019

  Actual Average Record
Temperature  
Mean Temperature 70 °F -  
Max Temperature 78 °F 84 °F 98 °F (1983)
Min Temperature 62 °F 59 °F 45 °F (1992)
Cooling Degree Days 5    
Growing Degree Days 20 (Base 50)    
Moisture  
Dew Point 68 °F    
Average Humidity 88    
Maximum Humidity 99    
Minimum Humidity 76    
Precipitation  
Precipitation 0.00 in - - ()
Sea Level Pressure  
Sea Level Pressure 29.99 in    
Wind  
Wind Speed 4 mph ()    
Max Wind Speed 14 mph    
Max Gust Speed 30 mph    
Visibility 8.3 miles    
Events Fog , Rain    
Averages and records for this station are not official NWS values.
T = Trace of Precipitation, MM = Missing Value Source: Averaged Metar Reports

Daily Weather History Graph

Daily Weather History Graph

Search for Another Location

Airport or City:

Astronomy

Aug. 21, 2019 Rise Set
Actual Time 6:11 AM CDT 7:47 PM CDT
Civil Twilight 5:42 AM CDT 8:16 PM CDT
Nautical Twilight 5:07 AM CDT 8:51 PM CDT
Astronomical Twilight 4:29 AM CDT 9:28 PM CDT
Moon 11:00 PM CDT (8/21) 11:51 AM CDT (8/21)
Length of Visible Light 14h 33m
Length of Day
13h 35m
Waning Gibbous, 69% of the Moon is Illuminated
Aug 21
Waning Gibbous
Aug 23
Last Quarter
Aug 30
New
Sep 5
First Quarter
Sep 13
Full

Hourly Weather History & Observations

Time (CDT) Temp. Dew Point Humidity Pressure Visibility Wind Dir Wind Speed Gust Speed Precip Events Conditions
12:15 AM 67.6 °F 66.2 °F 95% 30.01 in 10.0 mi South 4.6 mph - N/A   Clear
12:35 AM 67.5 °F 66.2 °F 96% 30.01 in 10.0 mi South 3.5 mph - N/A   Clear
12:55 AM 67.3 °F 65.8 °F 95% 30.00 in 10.0 mi Calm Calm - N/A   Clear
1:15 AM 67.1 °F 65.7 °F 95% 29.99 in 10.0 mi Calm Calm - N/A   Clear
1:35 AM 64.8 °F 63.3 °F 95% 30.00 in 7.0 mi SW 4.6 mph - N/A   Clear
1:55 AM 65.1 °F 64.0 °F 96% 29.99 in 5.0 mi WSW 3.5 mph - N/A   Clear
2:15 AM 64.9 °F 64.0 °F 97% 29.99 in 4.0 mi WSW 3.5 mph - N/A   Scattered Clouds
2:35 AM 65.5 °F 64.6 °F 97% 29.98 in 5.0 mi West 3.5 mph - N/A   Scattered Clouds
2:55 AM 65.5 °F 64.6 °F 97% 29.98 in 5.0 mi WNW 3.5 mph - N/A   Scattered Clouds
3:15 AM 65.5 °F 64.4 °F 96% 29.97 in 7.0 mi NW 3.5 mph - N/A   Clear
3:35 AM 65.5 °F 64.6 °F 97% 29.97 in 1.2 mi Calm Calm - N/A   Mostly Cloudy
3:55 AM 63.9 °F 63.0 °F 97% 29.97 in 1.5 mi WSW 3.5 mph - N/A   Overcast
4:15 AM 64.6 °F 63.9 °F 98% 29.96 in 1.0 mi Calm Calm - N/A   Overcast
4:35 AM 64.6 °F 63.9 °F 98% 29.94 in 7.0 mi Calm Calm - N/A   Scattered Clouds
4:55 AM 63.7 °F 63.0 °F 97% 29.94 in 1.8 mi Calm Calm - N/A   Scattered Clouds
5:15 AM 64.8 °F 64.4 °F 99% 29.93 in 2.5 mi ESE 4.6 mph - N/A   Scattered Clouds
5:35 AM 64.9 °F 64.2 °F 98% 29.94 in 5.0 mi Calm Calm - N/A   Clear
5:55 AM 64.0 °F 63.0 °F 96% 29.96 in 7.0 mi Calm Calm - N/A   Clear
6:15 AM 62.6 °F 61.7 °F 97% 29.97 in 0.2 mi WSW 3.5 mph - N/A Fog Fog
6:35 AM 64.2 °F 63.5 °F 98% 29.98 in 4.0 mi Calm Calm - N/A   Mostly Cloudy
6:55 AM 64.4 °F 63.5 °F 97% 29.99 in 4.0 mi Calm Calm - N/A   Scattered Clouds
7:15 AM 66.4 °F 65.3 °F 96% 29.98 in 5.0 mi Calm Calm - N/A   Clear
7:35 AM 68.0 °F 66.6 °F 95% 29.99 in 7.0 mi Calm Calm - N/A   Clear
7:55 AM 68.4 °F 67.1 °F 96% 30.00 in 7.0 mi West 3.5 mph - N/A   Clear
8:15 AM 69.8 °F 67.6 °F 93% 30.00 in 10.0 mi SW 3.5 mph - N/A   Scattered Clouds
8:35 AM 71.1 °F 67.8 °F 89% 29.98 in 10.0 mi Calm Calm - N/A   Clear
8:55 AM 73.0 °F 68.5 °F 86% 29.98 in 10.0 mi Calm Calm - N/A   Clear
9:15 AM 74.3 °F 69.1 °F 84% 29.98 in 10.0 mi Calm Calm - N/A   Clear
9:55 AM 75.4 °F 69.6 °F 82% 29.99 in 10.0 mi Calm Calm - N/A   Clear
10:15 AM 76.6 °F 69.8 °F 79% 30.00 in 10.0 mi SW 5.8 mph - N/A   Clear
10:35 AM 76.8 °F 70.7 °F 81% 30.01 in 10.0 mi WSW 6.9 mph - N/A   Scattered Clouds
10:55 AM 76.6 °F 70.2 °F 80% 30.01 in 10.0 mi WSW 6.9 mph - N/A   Scattered Clouds
11:15 AM 77.0 °F 70.0 °F 79% 30.02 in 10.0 mi WSW 10.4 mph - N/A   Scattered Clouds
11:35 AM 77.7 °F 70.3 °F 78% 30.04 in 10.0 mi WSW 9.2 mph - N/A   Scattered Clouds
11:55 AM 78.3 °F 70.5 °F 77% 30.03 in 10.0 mi SW 10.4 mph - N/A   Mostly Cloudy
12:15 PM 78.1 °F 69.8 °F 76% 30.03 in 10.0 mi WSW 12.7 mph - N/A   Mostly Cloudy
12:35 PM 78.3 °F 70.5 °F 77% 30.03 in 10.0 mi West 11.5 mph - N/A   Mostly Cloudy
12:55 PM 78.1 °F 70.5 °F 77% 30.02 in 10.0 mi West 8.1 mph - N/A   Mostly Cloudy
1:15 PM 78.6 °F 70.9 °F 77% 30.02 in 10.0 mi WSW 10.4 mph - N/A   Scattered Clouds
1:35 PM 78.4 °F 70.3 °F 76% 30.01 in 10.0 mi West 10.4 mph - N/A   Mostly Cloudy
1:55 PM 78.4 °F 71.2 °F 78% 30.01 in 10.0 mi West 8.1 mph - N/A   Mostly Cloudy
2:15 PM 74.3 °F 68.9 °F 83% 30.02 in 7.0 mi West 13.8 mph 29.9 mph N/A Rain Light Rain
2:35 PM 75.4 °F 69.3 °F 81% 30.00 in 10.0 mi WNW 12.7 mph 17.3 mph N/A   Scattered Clouds
2:55 PM 75.4 °F 68.9 °F 80% 30.00 in 10.0 mi NW 9.2 mph - N/A   Clear
3:15 PM 76.1 °F 69.3 °F 79% 29.99 in 10.0 mi WNW 8.1 mph - N/A   Clear
3:35 PM 75.6 °F 68.5 °F 79% 29.97 in 10.0 mi North 6.9 mph - N/A   Scattered Clouds
3:55 PM 75.4 °F 68.0 °F 78% 29.96 in 10.0 mi NW 4.6 mph - N/A   Mostly Cloudy
4:15 PM 75.4 °F 68.4 °F 79% 29.97 in 10.0 mi WSW 5.8 mph - N/A   Overcast
4:35 PM 74.8 °F 68.5 °F 81% 29.97 in 10.0 mi WNW 4.6 mph - N/A Rain Light Rain
4:55 PM 74.8 °F 68.4 °F 80% 29.94 in 10.0 mi NE 3.5 mph - N/A   Light Drizzle
5:15 PM 76.1 °F 69.3 °F 79% 29.93 in 10.0 mi North 5.8 mph - N/A   Scattered Clouds
5:55 PM 75.4 °F 69.8 °F 83% 29.92 in 10.0 mi North 6.9 mph - N/A   Scattered Clouds
6:15 PM 75.4 °F 70.2 °F 84% 29.93 in 10.0 mi NW 5.8 mph - N/A   Clear
6:35 PM 74.8 °F 70.7 °F 87% 29.94 in 10.0 mi WNW 4.6 mph - N/A   Clear
6:55 PM 74.8 °F 70.7 °F 87% 29.94 in 10.0 mi WNW 4.6 mph - N/A   Clear
7:15 PM 74.3 °F 70.3 °F 87% 29.96 in 10.0 mi West 6.9 mph - N/A   Clear
7:35 PM 74.3 °F 70.3 °F 87% 29.97 in 10.0 mi WSW 4.6 mph - N/A   Clear
7:55 PM 73.4 °F 70.2 °F 90% 29.97 in 10.0 mi SW 4.6 mph - N/A   Mostly Cloudy
8:15 PM 72.9 °F 70.3 °F 92% 29.98 in 10.0 mi WSW 5.8 mph - N/A   Mostly Cloudy
8:35 PM 72.1 °F 70.2 °F 93% 29.99 in 10.0 mi West 4.6 mph - N/A   Mostly Cloudy
8:55 PM 72.5 °F 69.8 °F 91% 30.00 in 10.0 mi WNW 4.6 mph - N/A   Mostly Cloudy
9:15 PM 72.5 °F 68.9 °F 88% 30.01 in 10.0 mi WNW 5.8 mph - N/A   Clear
9:35 PM 72.3 °F 68.5 °F 88% 30.02 in 10.0 mi WNW 6.9 mph - N/A   Clear
9:55 PM 72.0 °F 68.4 °F 88% 30.01 in 10.0 mi NW 5.8 mph - N/A   Clear
10:15 PM 71.8 °F 68.0 °F 88% 30.00 in 10.0 mi NNW 5.8 mph - N/A   Clear
10:35 PM 71.6 °F 68.0 °F 88% 30.00 in 10.0 mi NNW 4.6 mph - N/A   Scattered Clouds
10:55 PM 71.1 °F 68.0 °F 90% 30.00 in 10.0 mi NNW 4.6 mph - N/A   Scattered Clouds
11:15 PM 70.9 °F 67.8 °F 90% 30.01 in 10.0 mi NNW 5.8 mph - N/A   Scattered Clouds
11:35 PM 70.3 °F 67.3 °F 90% 30.01 in 10.0 mi NNW 6.9 mph - N/A   Mostly Cloudy
11:55 PM 70.2 °F 66.6 °F 88% 30.00 in 10.0 mi NNW 9.2 mph - N/A   Mostly Cloudy